When you browse on this site, cookies collect data to enhance your experience and personalize the content and advertising you see.
Visit our Privacy Policy to learn more. By continuing to use the site, you agree to this use of cookies and data.
  • In Schweiz
  • Länderverzeichnis
  • Für 7 Tage
  • Wassertemperatur
  • Wetterkarte
  • Widgets
  • user-avatar
    Anmelden

    Stündliche Wetter Kurshevel

    Heute, 14 November, Donnerstag

    Zeit Temperatur Niederschläge Wind Luftdruck Luftfeuchtigkeit
    00:00 -4°C° 0 mm 2 m/S 647 mmHg 51%
    01:00 -4°C° 0 mm 2 m/S 647 mmHg 54%
    02:00 -4°C° 0 mm 3 m/S 647 mmHg 57%
    03:00 -4°C° 0 mm 3 m/S 646 mmHg 60%
    04:00 -4°C° 0 mm 3 m/S 646 mmHg 62%
    05:00 -4°C° 0 mm 3 m/S 646 mmHg 65%
    06:00 -4°C° 0 mm 3 m/S 647 mmHg 67%
    07:00 -2°C° 0 mm 3 m/S 647 mmHg 70%
    08:00 -1°C° 0 mm 3 m/S 647 mmHg 72%
    09:00 0°C° 0 mm 3 m/S 648 mmHg 75%
    10:00 0°C° 0.1 mm 3 m/S 647 mmHg 76%
    11:00 0°C° 0.1 mm 4 m/S 647 mmHg 76%
    12:00 0°C° 0.1 mm 4 m/S 646 mmHg 77%
    13:00 0°C° 0.3 mm 4 m/S 646 mmHg 81%
    14:00 -1°C° 0.3 mm 4 m/S 645 mmHg 84%
    15:00 0°C° 0.3 mm 3 m/S 645 mmHg 87%
    16:00 -1°C° 1.4 mm 4 m/S 644 mmHg 89%
    17:00 -2°C° 1.4 mm 4 m/S 644 mmHg 90%
    18:00 -2°C° 1.4 mm 4 m/S 643 mmHg 91%
    19:00 -1°C° 1.3 mm 3 m/S 643 mmHg 92%
    20:00 -1°C° 1.3 mm 3 m/S 643 mmHg 92%
    21:00 -1°C° 1.3 mm 3 m/S 642 mmHg 93%
    22:00 -1°C° 2 mm 3 m/S 642 mmHg 93%
    23:00 -1°C° 2 mm 3 m/S 642 mmHg 94%

    Morgen, 15 November, Freitag

    Zeit Temperatur Niederschläge Wind Luftdruck Luftfeuchtigkeit
    00:00 -1°C° 2 mm 3 m/S 641 mmHg 94%
    01:00 -1°C° 1.5 mm 3 m/S 641 mmHg 95%
    02:00 -1°C° 1.5 mm 3 m/S 641 mmHg 95%
    03:00 -1°C° 1.5 mm 3 m/S 641 mmHg 95%
    04:00 -2°C° 0.4 mm 3 m/S 641 mmHg 94%
    05:00 -2°C° 0.4 mm 3 m/S 642 mmHg 93%
    06:00 -3°C° 0.4 mm 2 m/S 642 mmHg 91%
    07:00 -2°C° 0 mm 2 m/S 643 mmHg 90%
    08:00 -1°C° 0 mm 2 m/S 644 mmHg 89%
    09:00 +1°C° 0 mm 2 m/S 645 mmHg 88%
    10:00 +1°C° 0 mm 2 m/S 645 mmHg 86%
    11:00 +2°C° 0 mm 2 m/S 645 mmHg 83%
    12:00 +4°C° 0 mm 1 m/S 646 mmHg 81%
    13:00 +3°C° 0 mm 1 m/S 646 mmHg 84%
    14:00 +3°C° 0 mm 1 m/S 646 mmHg 87%
    15:00 +2°C° 0 mm 1 m/S 646 mmHg 90%
    16:00 +1°C° 0 mm 1 m/S 646 mmHg 91%
    17:00 +1°C° 0 mm 1 m/S 646 mmHg 91%
    18:00 0°C° 0 mm 1 m/S 646 mmHg 92%
    19:00 0°C° 0.2 mm 1 m/S 646 mmHg 92%
    20:00 0°C° 0.2 mm 1 m/S 646 mmHg 92%
    21:00 0°C° 0.2 mm 1 m/S 646 mmHg 91%
    22:00 -1°C° 0.2 mm 1 m/S 647 mmHg 91%
    23:00 -1°C° 0.2 mm 1 m/S 647 mmHg 92%

    übermorgen, 16 November, Samstag

    Zeit Temperatur Niederschläge Wind Luftdruck Luftfeuchtigkeit
    00:00 -1°C° 0.2 mm 1 m/S 647 mmHg 92%
    01:00 -1°C° 0.4 mm 1 m/S 647 mmHg 92%
    02:00 -1°C° 0.4 mm 1 m/S 648 mmHg 93%
    03:00 -1°C° 0.4 mm 1 m/S 648 mmHg 93%
    04:00 -4°C° 0.1 mm 2 m/S 649 mmHg 93%
    05:00 -4°C° 0.1 mm 2 m/S 649 mmHg 92%
    06:00 -5°C° 0.1 mm 2 m/S 649 mmHg 91%
    07:00 -3°C° 0 mm 2 m/S 650 mmHg 90%
    08:00 -2°C° 0 mm 2 m/S 651 mmHg 88%
    09:00 -1°C° 0 mm 2 m/S 652 mmHg 87%
    10:00 +1°C° 0 mm 2 m/S 652 mmHg 85%
    11:00 +2°C° 0 mm 2 m/S 653 mmHg 83%
    12:00 +3°C° 0 mm 2 m/S 653 mmHg 80%
    13:00 +2°C° 0 mm 2 m/S 653 mmHg 84%
    14:00 +2°C° 0 mm 1 m/S 652 mmHg 87%
    15:00 +2°C° 0 mm 1 m/S 652 mmHg 90%
    16:00 -1°C° 0 mm 2 m/S 651 mmHg 90%
    17:00 -3°C° 0 mm 2 m/S 651 mmHg 89%
    18:00 -4°C° 0 mm 2 m/S 651 mmHg 89%
    19:00 -4°C° 0 mm 2 m/S 651 mmHg 88%
    20:00 -4°C° 0 mm 2 m/S 651 mmHg 87%
    21:00 -3°C° 0 mm 2 m/S 650 mmHg 86%
    22:00 -3°C° 0 mm 2 m/S 650 mmHg 86%
    23:00 -3°C° 0 mm 2 m/S 649 mmHg 86%

    17 November, Sonntag

    Zeit Temperatur Niederschläge Wind Luftdruck Luftfeuchtigkeit
    00:00 -3°C° 0 mm 2 m/S 649 mmHg 87%
    01:00 0°C° 0 mm 1 m/S 648 mmHg 88%
    02:00 0°C° 0 mm 1 m/S 647 mmHg 89%
    03:00 0°C° 0 mm 1 m/S 646 mmHg 89%
    04:00 0°C° 0.6 mm 1 m/S 645 mmHg 92%
    05:00 0°C° 0.6 mm 1 m/S 645 mmHg 94%
    06:00 0°C° 0.6 mm 1 m/S 644 mmHg 96%
    07:00 +1°C° 1.1 mm 1 m/S 644 mmHg 96%
    08:00 +1°C° 1.1 mm 1 m/S 644 mmHg 96%
    09:00 +2°C° 1.1 mm 1 m/S 644 mmHg 96%
    10:00 +2°C° 0.2 mm 1 m/S 644 mmHg 96%
    11:00 +3°C° 0.2 mm 1 m/S 644 mmHg 96%
    12:00 +3°C° 0.2 mm 1 m/S 644 mmHg 96%
    13:00 +3°C° 0.7 mm 1 m/S 644 mmHg 97%
    14:00 +1°C° 0.7 mm 2 m/S 644 mmHg 97%
    15:00 +1°C° 0.7 mm 2 m/S 644 mmHg 97%
    16:00 +1°C° 0.8 mm 1 m/S 645 mmHg 97%
    17:00 +1°C° 0.8 mm 1 m/S 645 mmHg 97%
    18:00 0°C° 0.8 mm 1 m/S 645 mmHg 97%
    19:00 0°C° 0.5 mm 1 m/S 646 mmHg 97%
    20:00 0°C° 0.5 mm 1 m/S 646 mmHg 97%
    21:00 -1°C° 0.5 mm 1 m/S 646 mmHg 97%
    22:00 -1°C° 0.7 mm 1 m/S 647 mmHg 97%
    23:00 -1°C° 0.7 mm 1 m/S 647 mmHg 97%

    18 November, Montag

    Zeit Temperatur Niederschläge Wind Luftdruck Luftfeuchtigkeit
    00:00 -1°C° 0.7 mm 1 m/S 647 mmHg 97%
    01:00 -1°C° 0.4 mm 1 m/S 647 mmHg 97%
    02:00 -1°C° 0.4 mm 1 m/S 647 mmHg 98%
    03:00 -3°C° 0.4 mm 0 m/S 647 mmHg 98%
    04:00 -2°C° 0.1 mm 1 m/S 648 mmHg 97%
    05:00 -3°C° 0.1 mm 1 m/S 648 mmHg 97%
    06:00 -3°C° 0.1 mm 1 m/S 648 mmHg 97%
    07:00 -3°C° 0 mm 0 m/S 648 mmHg 95%
    08:00 -2°C° 0 mm 0 m/S 649 mmHg 93%
    09:00 -1°C° 0 mm 0 m/S 650 mmHg 91%
    10:00 -1°C° 0 mm 0 m/S 650 mmHg 92%
    11:00 +1°C° 0 mm 1 m/S 650 mmHg 92%
    12:00 +2°C° 0 mm 1 m/S 650 mmHg 93%
    13:00 +1°C° 0.1 mm 1 m/S 650 mmHg 94%
    14:00 +1°C° 0.1 mm 1 m/S 650 mmHg 95%
    15:00 +1°C° 0.1 mm 1 m/S 650 mmHg 96%
    16:00 -1°C° 0 mm 1 m/S 650 mmHg 96%
    17:00 -2°C° 0 mm 1 m/S 650 mmHg 96%
    18:00 -3°C° 0 mm 1 m/S 651 mmHg 95%
    19:00 -3°C° 0 mm 1 m/S 651 mmHg 93%
    20:00 -4°C° 0 mm 1 m/S 651 mmHg 91%
    21:00 -4°C° 0 mm 1 m/S 651 mmHg 89%
    22:00 -4°C° 0 mm 1 m/S 651 mmHg 88%
    23:00 -6°C° 0 mm 1 m/S 652 mmHg 86%

    19 November, Dienstag

    Zeit Temperatur Niederschläge Wind Luftdruck Luftfeuchtigkeit
    00:00 -6°C° 0 mm 1 m/S 652 mmHg 85%
    01:00 -6°C° 0 mm 1 m/S 652 mmHg 85%
    02:00 -6°C° 0 mm 1 m/S 652 mmHg 84%
    03:00 -6°C° 0 mm 1 m/S 652 mmHg 84%
    04:00 -6°C° 0 mm 1 m/S 652 mmHg 85%
    05:00 -6°C° 0 mm 1 m/S 652 mmHg 85%
    06:00 -7°C° 0 mm 1 m/S 652 mmHg 85%
    07:00 -4°C° 0 mm 1 m/S 653 mmHg 83%
    08:00 -2°C° 0 mm 1 m/S 654 mmHg 82%
    09:00 -1°C° 0 mm 0 m/S 655 mmHg 80%
    10:00 0°C° 0 mm 0 m/S 655 mmHg 76%
    11:00 +1°C° 0 mm 0 m/S 655 mmHg 73%
    12:00 +2°C° 0 mm 0 m/S 655 mmHg 69%
    13:00 +1°C° 0 mm 0 m/S 655 mmHg 74%
    14:00 +1°C° 0 mm 0 m/S 655 mmHg 79%
    15:00 0°C° 0 mm 0 m/S 654 mmHg 83%
    16:00 0°C° 0 mm 1 m/S 654 mmHg 78%
    17:00 -4°C° 0 mm 2 m/S 654 mmHg 73%
    18:00 -5°C° 0 mm 2 m/S 654 mmHg 68%
    19:00 -5°C° 0 mm 2 m/S 654 mmHg 64%
    20:00 -5°C° 0 mm 2 m/S 655 mmHg 60%
    21:00 -6°C° 0 mm 3 m/S 655 mmHg 57%
    22:00 -6°C° 0 mm 3 m/S 655 mmHg 58%
    23:00 -6°C° 0 mm 3 m/S 655 mmHg 59%
    Mehr zeigen